QPF
0.00 0.00 0.00 0.00 0.00 0.00 0.00 0.00 0.00 0.00 0.00 0.00 0.00 0.00 0.00 0.00 0.00 0.00 0.00 0.00 0.00 0.00 0.00 0.00 0.00 0.00 0.00 0.00 0.00 0.00 0.00 0.00 0.00 0.00 0.00 0.00 0.00 0.00 0.00 0.00 0.00 0.00 0.00
0.00 0.00 0.00 0.00 0.00 0.00 0.00 0.00 0.00 0.00 0.00 0.00 0.00 0.00 0.00 0.00 0.00 0.00 0.00 0.00 0.00 0.00 0.00 0.00 0.00 0.00 0.00 0.00 0.00 0.00 0.00 0.00 0.00 0.00 0.00 0.00 0.00 0.00 0.00 0.00 0.00 0.00 0.00
0.00 0.00 0.00 0.00 0.00 0.00 0.00 0.00 0.00 0.00 0.00 0.00 0.00 0.00 0.00 0.00 0.00 0.00 0.00 0.00 0.00 0.00 0.00 0.00 0.00 0.00 0.00 0.00 0.00 0.00 0.00 0.00 0.00 0.00 0.00 0.00 0.00 0.00 0.00 0.00 0.01 0.00 0.00
0.00 0.00 0.00 0.00 0.00 0.00 0.00 0.00 0.00 0.00 0.00 0.00 0.00 0.00 0.00 0.00 0.00 0.00 0.00 0.00 0.00 0.00 0.00 0.00 0.00 0.00 0.00 0.00 0.00 0.00 0.00 0.00 0.00 0.00 0.00 0.00 0.00 0.01 0.01 0.01 0.01 0.01 0.01
0.00 0.00 0.00 0.00 0.00 0.00 0.00 0.00 0.00 0.00 0.00 0.00 0.00 0.00 0.00 0.00 0.00 0.00 0.00 0.00 0.00 0.00 0.00 0.00 0.00 0.00 0.00 0.00 0.00 0.00 0.00 0.00 0.00 0.00 0.00 0.00 0.01 0.01 0.01 0.01 0.01 0.01 0.01
0.00 0.00 0.00 0.00 0.00 0.00 0.00 0.00 0.00 0.00 0.00 0.00 0.00 0.00 0.00 0.00 0.00 0.00 0.00 0.00 0.00 0.00 0.00 0.00 0.00 0.00 0.00 0.00 0.00 0.00 0.00 0.00 0.00 0.00 0.00 0.01 0.01 0.01 0.01 0.01 0.01 0.01 0.01
0.00 0.00 0.00 0.00 0.00 0.00 0.00 0.00 0.00 0.00 0.00 0.00 0.00 0.00 0.00 0.00 0.00 0.00 0.00 0.00 0.00 0.00 0.00 0.00 0.00 0.00 0.00 0.00 0.00 0.00 0.00 0.00 0.00 0.00 0.00 0.00 0.01 0.01 0.01 0.01 0.01 0.02 0.02
0.00 0.00 0.00 0.00 0.00 0.00 0.00 0.00 0.00 0.00 0.00 0.00 0.00 0.00 0.00 0.00 0.00 0.00 0.00 0.00 0.00 0.00 0.00 0.00 0.00 0.00 0.00 0.00 0.00 0.00 0.00 0.00 0.00 0.00 0.00 0.00 0.01 0.01 0.01 0.01 0.02 0.02 0.02
0.00 0.00 0.00 0.00 0.00 0.00 0.00 0.00 0.00 0.00 0.00 0.00 0.00 0.00 0.00 0.00 0.00 0.00 0.00 0.00 0.00 0.00 0.00 0.00 0.00 0.00 0.00 0.00 0.00 0.00 0.00 0.00 0.00 0.00 0.00 0.00 0.01 0.01 0.01 0.02 0.02 0.02 0.02
0.00 0.00 0.00 0.00 0.00 0.00 0.00 0.00 0.00 0.00 0.00 0.00 0.00 0.00 0.00 0.00 0.00 0.00 0.00 0.00 0.00 0.00 0.00 0.00 0.00 0.00 0.00 0.00 0.00 0.00 0.00 0.00 0.00 0.00 0.00 0.00 0.00 0.01 0.01 0.02 0.02 0.03 0.03
0.00 0.00 0.00 0.00 0.00 0.00 0.00 0.00 0.00 0.00 0.00 0.00 0.00 0.00 0.00 0.00 0.00 0.00 0.00 0.00 0.00 0.00 0.00 0.00 0.00 0.00 0.00 0.00 0.00 0.00 0.00 0.00 0.00 0.00 0.00 0.00 0.00 0.00 0.01 0.02 0.03 0.03 0.04
0.00 0.00 0.00 0.00 0.00 0.00 0.00 0.00 0.00 0.00 0.00 0.00 0.00 0.00 0.00 0.00 0.00 0.00 0.00 0.00 0.00 0.00 0.00 0.00 0.00 0.00 0.00 0.00 0.00 0.00 0.00 0.00 0.00 0.00 0.00 0.00 0.00 0.00 0.01 0.02 0.03 0.03 0.04
0.00 0.00 0.00 0.00 0.00 0.00 0.00 0.00 0.00 0.00 0.00 0.00 0.00 0.00 0.00 0.00 0.00 0.00 0.00 0.00 0.00 0.00 0.00 0.00 0.00 0.00 0.00 0.00 0.00 0.00 0.00 0.00 0.00 0.00 0.00 0.00 0.00 0.00 0.00 0.01 0.01 0.02 0.03
0.00 0.00 0.00 0.00 0.00 0.00 0.00 0.00 0.00 0.00 0.00 0.00 0.00 0.00 0.00 0.00 0.00 0.00 0.00 0.00 0.00 0.00 0.00 0.00 0.00 0.00 0.00 0.00 0.00 0.00 0.00 0.00 0.00 0.00 0.00 0.00 0.00 0.00 0.00 0.00 0.00 0.01 0.02
0.00 0.00 0.00 0.00 0.00 0.00 0.00 0.00 0.00 0.00 0.00 0.00 0.00 0.00 0.00 0.00 0.00 0.00 0.00 0.00 0.00 0.00 0.00 0.00 0.00 0.00 0.00 0.00 0.00 0.00 0.00 0.00 0.00 0.00 0.00 0.00 0.00 0.00 0.00 0.00 0.00 0.00 0.01
0.00 0.00 0.00 0.00 0.00 0.00 0.00 0.00 0.00 0.00 0.00 0.00 0.00 0.00 0.00 0.00 0.00 0.00 0.00 0.00 0.00 0.00 0.00 0.00 0.00 0.00 0.00 0.00 0.00 0.00 0.00 0.00 0.00 0.00 0.00 0.00 0.00 0.00 0.00 0.00 0.00 0.01 0.01
0.00 0.00 0.00 0.00 0.00 0.00 0.00 0.00 0.00 0.00 0.00 0.00 0.00 0.00 0.00 0.00 0.00 0.00 0.00 0.00 0.00 0.00 0.00 0.00 0.00 0.00 0.00 0.00 0.00 0.00 0.00 0.00 0.00 0.00 0.00 0.00 0.00 0.00 0.00 0.01 0.01 0.01 0.01
0.00 0.00 0.00 0.00 0.00 0.00 0.00 0.00 0.00 0.00 0.00 0.00 0.00 0.00 0.00 0.00 0.00 0.00 0.00 0.00 0.00 0.00 0.00 0.00 0.00 0.00 0.00 0.00 0.00 0.00 0.00 0.00 0.00 0.00 0.00 0.00 0.00 0.00 0.01 0.01 0.01 0.01 0.02
0.00 0.00 0.00 0.00 0.00 0.00 0.00 0.00 0.00 0.00 0.00 0.00 0.00 0.00 0.00 0.00 0.00 0.00 0.00 0.00 0.00 0.00 0.00 0.01 0.00 0.00 0.00 0.00 0.00 0.00 0.00 0.00 0.00 0.00 0.00 0.00 0.00 0.01 0.01 0.02 0.02 0.02 0.02
0.00 0.00 0.00 0.00 0.00 0.00 0.00 0.00 0.00 0.00 0.00 0.00 0.00 0.00 0.00 0.00 0.00 0.00 0.00 0.00 0.00 0.01 0.01 0.02 0.01 0.00 0.00 0.00 0.01 0.00 0.00 0.00 0.00 0.00 0.00 0.00 0.00 0.01 0.01 0.02 0.03 0.04 0.04
0.00 0.00 0.00 0.00 0.00 0.00 0.00 0.00 0.00 0.00 0.00 0.00 0.00 0.00 0.00 0.00 0.01 0.01 0.01 0.02 0.02 0.03 0.04 0.04 0.02 0.01 0.01 0.02 0.01 0.01 0.01 0.01 0.01 0.01 0.01 0.01 0.00 0.00 0.01 0.01 0.03 0.04 0.05
0.00 0.00 0.00 0.00 0.00 0.00 0.00 0.00 0.00 0.00 0.00 0.01 0.01 0.01 0.01 0.01 0.01 0.02 0.04 0.04 0.06 0.08 0.10 0.10 0.07 0.04 0.01 0.01 0.01 0.02 0.02 0.03 0.02 0.01 0.01 0.01 0.01 0.01 0.01 0.00 0.01 0.01 0.03
0.00 0.00 0.00 0.00 0.00 0.00 0.00 0.00 0.00 0.01 0.01 0.01 0.01 0.01 0.01 0.01 0.01 0.01 0.02 0.02 0.03 0.05 0.08 0.11 0.13 0.08 0.04 0.03 0.04 0.05 0.04 0.03 0.01 0.01 0.02 0.02 0.01 0.01 0.00 0.00 0.00 0.01 0.01
0.00 0.00 0.00 0.00 0.00 0.00 0.00 0.00 0.01 0.01 0.01 0.01 0.01 0.01 0.01 0.01 0.01 0.01 0.01 0.01 0.01 0.01 0.02 0.05 0.08 0.07 0.05 0.05 0.05 0.05 0.04 0.06 0.04 0.02 0.03 0.02 0.01 0.01 0.00 0.00 0.00 0.01 0.01
0.00 0.00 0.00 0.00 0.00 0.00 0.00 0.00 0.01 0.01 0.01 0.01 0.00 0.00 0.01 0.01 0.01 0.02 0.03 0.03 0.02 0.01 0.01 0.03 0.05 0.06 0.07 0.08 0.09 0.11 0.12 0.12 0.07 0.02 0.02 0.03 0.01 0.01 0.01 0.00 0.00 0.00 0.01
0.00 0.00 0.00 0.00 0.00 0.00 0.00 0.00 0.01 0.01 0.01 0.01 0.01 0.01 0.01 0.02 0.03 0.04 0.04 0.04 0.03 0.01 0.01 0.02 0.02 0.03 0.05 0.08 0.11 0.14 0.11 0.09 0.06 0.03 0.01 0.02 0.01 0.02 0.02 0.00 0.00 0.00 0.00
MSLP
1023.52 1023.67 1023.79 1023.89 1023.97 1024.05 1024.12 1024.19 1024.26 1024.29 1024.30 1024.28 1024.23 1024.16 1024.10 1024.05 1024.03 1024.04 1024.05 1024.05 1024.02 1023.92 1023.76 1023.52 1023.25 1022.95 1022.68 1022.47 1022.33 1022.27 1022.30 1022.37 1022.47 1022.58 1022.66 1022.71 1022.73 1022.72 1022.70 1022.67 1022.64 1022.61 1022.56
1023.21 1023.33 1023.42 1023.49 1023.54 1023.60 1023.65 1023.69 1023.73 1023.73 1023.71 1023.65 1023.56 1023.46 1023.36 1023.29 1023.25 1023.24 1023.25 1023.27 1023.25 1023.19 1023.05 1022.85 1022.59 1022.31 1022.03 1021.80 1021.63 1021.55 1021.55 1021.61 1021.73 1021.86 1022.00 1022.11 1022.20 1022.26 1022.30 1022.32 1022.32 1022.30 1022.26
1022.86 1022.96 1023.03 1023.08 1023.12 1023.15 1023.19 1023.21 1023.23 1023.21 1023.16 1023.06 1022.93 1022.78 1022.63 1022.50 1022.41 1022.36 1022.35 1022.36 1022.36 1022.32 1022.23 1022.07 1021.85 1021.59 1021.32 1021.08 1020.89 1020.78 1020.75 1020.79 1020.89 1021.04 1021.20 1021.36 1021.51 1021.63 1021.72 1021.79 1021.83 1021.84 1021.82
1022.49 1022.58 1022.64 1022.68 1022.72 1022.74 1022.77 1022.79 1022.79 1022.75 1022.67 1022.53 1022.35 1022.14 1021.91 1021.71 1021.54 1021.43 1021.37 1021.35 1021.35 1021.33 1021.28 1021.17 1021.00 1020.79 1020.55 1020.31 1020.11 1019.97 1019.90 1019.90 1019.98 1020.11 1020.28 1020.46 1020.64 1020.81 1020.96 1021.08 1021.16 1021.21 1021.23
1022.13 1022.21 1022.27 1022.31 1022.35 1022.38 1022.40 1022.42 1022.41 1022.36 1022.25 1022.08 1021.84 1021.55 1021.25 1020.95 1020.68 1020.48 1020.35 1020.28 1020.25 1020.23 1020.21 1020.15 1020.04 1019.88 1019.69 1019.47 1019.27 1019.11 1019.00 1018.96 1018.99 1019.09 1019.24 1019.43 1019.63 1019.83 1020.02 1020.19 1020.32 1020.42 1020.49
1021.79 1021.87 1021.92 1021.97 1022.01 1022.04 1022.08 1022.10 1022.09 1022.03 1021.90 1021.68 1021.39 1021.03 1020.64 1020.23 1019.86 1019.55 1019.32 1019.17 1019.09 1019.06 1019.05 1019.03 1018.98 1018.88 1018.74 1018.56 1018.37 1018.20 1018.06 1017.97 1017.96 1018.01 1018.13 1018.29 1018.50 1018.72 1018.94 1019.15 1019.34 1019.50 1019.63
1021.47 1021.54 1021.59 1021.64 1021.68 1021.72 1021.76 1021.78 1021.77 1021.71 1021.56 1021.32 1020.98 1020.56 1020.08 1019.58 1019.10 1018.68 1018.34 1018.10 1017.95 1017.88 1017.86 1017.86 1017.85 1017.80 1017.71 1017.57 1017.41 1017.24 1017.08 1016.96 1016.90 1016.90 1016.97 1017.11 1017.29 1017.52 1017.76 1018.01 1018.25 1018.47 1018.67
1021.18 1021.23 1021.27 1021.30 1021.34 1021.38 1021.41 1021.44 1021.42 1021.35 1021.19 1020.94 1020.57 1020.11 1019.58 1019.00 1018.43 1017.90 1017.45 1017.11 1016.87 1016.74 1016.68 1016.67 1016.68 1016.67 1016.62 1016.53 1016.40 1016.24 1016.08 1015.94 1015.84 1015.80 1015.83 1015.92 1016.08 1016.28 1016.53 1016.80 1017.08 1017.36 1017.63
1020.91 1020.93 1020.94 1020.96 1020.97 1020.99 1021.01 1021.02 1021.00 1020.92 1020.76 1020.50 1020.13 1019.66 1019.10 1018.48 1017.84 1017.23 1016.70 1016.25 1015.92 1015.71 1015.59 1015.54 1015.53 1015.52 1015.50 1015.45 1015.36 1015.23 1015.09 1014.94 1014.82 1014.74 1014.72 1014.77 1014.89 1015.07 1015.30 1015.58 1015.89 1016.21 1016.53
1020.66 1020.63 1020.61 1020.59 1020.57 1020.55 1020.54 1020.52 1020.47 1020.38 1020.22 1019.97 1019.62 1019.16 1018.61 1017.99 1017.33 1016.68 1016.08 1015.55 1015.12 1014.81 1014.60 1014.48 1014.43 1014.41 1014.40 1014.37 1014.31 1014.22 1014.10 1013.97 1013.85 1013.75 1013.69 1013.69 1013.76 1013.90 1014.11 1014.38 1014.69 1015.04 1015.40
1020.42 1020.35 1020.28 1020.21 1020.14 1020.07 1020.01 1019.94 1019.85 1019.73 1019.57 1019.33 1019.01 1018.59 1018.08 1017.50 1016.86 1016.20 1015.56 1014.97 1014.46 1014.04 1013.74 1013.53 1013.41 1013.34 1013.32 1013.30 1013.27 1013.21 1013.13 1013.03 1012.92 1012.81 1012.73 1012.69 1012.71 1012.79 1012.96 1013.20 1013.50 1013.86 1014.24
1020.20 1020.08 1019.96 1019.83 1019.70 1019.57 1019.43 1019.30 1019.15 1018.99 1018.81 1018.58 1018.29 1017.93 1017.48 1016.96 1016.37 1015.74 1015.09 1014.47 1013.89 1013.39 1012.98 1012.67 1012.46 1012.34 1012.28 1012.25 1012.24 1012.22 1012.18 1012.11 1012.02 1011.92 1011.82 1011.74 1011.71 1011.74 1011.86 1012.05 1012.33 1012.68 1013.08
1020.00 1019.84 1019.66 1019.48 1019.28 1019.07 1018.86 1018.64 1018.42 1018.20 1017.98 1017.74 1017.47 1017.16 1016.79 1016.34 1015.82 1015.24 1014.62 1013.98 1013.36 1012.79 1012.29 1011.89 1011.59 1011.39 1011.28 1011.23 1011.23 1011.23 1011.23 1011.20 1011.14 1011.04 1010.93 1010.83 1010.76 1010.73 1010.79 1010.94 1011.19 1011.52 1011.92
1019.83 1019.62 1019.40 1019.16 1018.90 1018.61 1018.30 1017.99 1017.68 1017.39 1017.11 1016.85 1016.59 1016.30 1015.98 1015.61 1015.16 1014.65 1014.07 1013.45 1012.81 1012.20 1011.63 1011.15 1010.77 1010.50 1010.33 1010.26 1010.25 1010.27 1010.29 1010.29 1010.25 1010.17 1010.06 1009.93 1009.82 1009.75 1009.76 1009.87 1010.08 1010.40 1010.80
1019.67 1019.43 1019.17 1018.88 1018.55 1018.19 1017.79 1017.39 1016.98 1016.60 1016.25 1015.94 1015.65 1015.38 1015.09 1014.77 1014.39 1013.94 1013.42 1012.83 1012.21 1011.57 1010.97 1010.43 1009.99 1009.66 1009.44 1009.33 1009.30 1009.32 1009.36 1009.38 1009.35 1009.28 1009.16 1009.02 1008.89 1008.79 1008.76 1008.83 1009.02 1009.32 1009.73
1019.51 1019.23 1018.93 1018.59 1018.22 1017.79 1017.33 1016.84 1016.35 1015.88 1015.44 1015.06 1014.72 1014.42 1014.14 1013.85 1013.52 1013.12 1012.65 1012.12 1011.52 1010.91 1010.30 1009.73 1009.25 1008.88 1008.62 1008.47 1008.41 1008.41 1008.44 1008.47 1008.45 1008.38 1008.26 1008.11 1007.96 1007.84 1007.79 1007.84 1008.02 1008.32 1008.74
1019.29 1018.98 1018.64 1018.28 1017.86 1017.40 1016.88 1016.33 1015.76 1015.21 1014.70 1014.23 1013.83 1013.48 1013.17 1012.87 1012.56 1012.20 1011.79 1011.31 1010.77 1010.19 1009.60 1009.04 1008.55 1008.15 1007.86 1007.68 1007.59 1007.56 1007.57 1007.57 1007.54 1007.47 1007.35 1007.20 1007.05 1006.93 1006.88 1006.93 1007.10 1007.41 1007.84
1018.98 1018.63 1018.26 1017.87 1017.44 1016.95 1016.41 1015.83 1015.22 1014.60 1014.01 1013.47 1012.99 1012.57 1012.21 1011.88 1011.56 1011.23 1010.85 1010.43 1009.95 1009.43 1008.89 1008.36 1007.89 1007.48 1007.17 1006.96 1006.83 1006.76 1006.73 1006.71 1006.66 1006.58 1006.46 1006.32 1006.17 1006.06 1006.02 1006.09 1006.28 1006.59 1007.03
1018.55 1018.15 1017.76 1017.35 1016.91 1016.43 1015.89 1015.29 1014.66 1014.01 1013.36 1012.75 1012.19 1011.70 1011.27 1010.90 1010.55 1010.22 1009.88 1009.50 1009.08 1008.63 1008.15 1007.68 1007.24 1006.84 1006.53 1006.28 1006.12 1006.01 1005.94 1005.88 1005.81 1005.72 1005.60 1005.47 1005.35 1005.26 1005.25 1005.33 1005.53 1005.86 1006.31
1017.99 1017.54 1017.11 1016.69 1016.26 1015.79 1015.27 1014.69 1014.06 1013.39 1012.71 1012.05 1011.42 1010.85 1010.35 1009.92 1009.54 1009.20 1008.86 1008.52 1008.16 1007.78 1007.38 1006.97 1006.57 1006.20 1005.89 1005.63 1005.43 1005.28 1005.17 1005.07 1004.98 1004.88 1004.78 1004.67 1004.58 1004.53 1004.54 1004.65 1004.88 1005.21 1005.64
1017.32 1016.82 1016.36 1015.92 1015.49 1015.04 1014.54 1013.99 1013.38 1012.71 1012.02 1011.32 1010.64 1010.01 1009.44 1008.94 1008.52 1008.15 1007.82 1007.51 1007.20 1006.88 1006.54 1006.20 1005.85 1005.52 1005.21 1004.94 1004.72 1004.54 1004.40 1004.28 1004.18 1004.09 1004.00 1003.92 1003.87 1003.86 1003.92 1004.05 1004.28 1004.61 1005.03
1016.58 1016.03 1015.53 1015.08 1014.64 1014.20 1013.72 1013.19 1012.60 1011.95 1011.25 1010.53 1009.81 1009.13 1008.50 1007.95 1007.47 1007.08 1006.74 1006.44 1006.17 1005.90 1005.62 1005.34 1005.04 1004.74 1004.45 1004.19 1003.96 1003.77 1003.61 1003.49 1003.40 1003.32 1003.27 1003.24 1003.23 1003.27 1003.36 1003.52 1003.75 1004.06 1004.45
1015.85 1015.24 1014.70 1014.21 1013.76 1013.31 1012.84 1012.32 1011.74 1011.10 1010.40 1009.66 1008.92 1008.19 1007.52 1006.92 1006.40 1005.97 1005.62 1005.33 1005.08 1004.85 1004.61 1004.37 1004.11 1003.85 1003.59 1003.34 1003.12 1002.93 1002.79 1002.68 1002.62 1002.59 1002.59 1002.61 1002.66 1002.75 1002.87 1003.04 1003.27 1003.55 1003.90
1015.15 1014.51 1013.92 1013.39 1012.90 1012.42 1011.93 1011.41 1010.82 1010.18 1009.47 1008.72 1007.96 1007.20 1006.50 1005.86 1005.31 1004.85 1004.48 1004.18 1003.94 1003.72 1003.52 1003.31 1003.09 1002.86 1002.63 1002.41 1002.21 1002.05 1001.94 1001.88 1001.86 1001.89 1001.95 1002.04 1002.15 1002.28 1002.44 1002.62 1002.83 1003.08 1003.37
1014.54 1013.86 1013.23 1012.65 1012.10 1011.58 1011.05 1010.49 1009.88 1009.22 1008.50 1007.73 1006.95 1006.18 1005.45 1004.78 1004.21 1003.72 1003.34 1003.03 1002.78 1002.57 1002.38 1002.20 1002.00 1001.80 1001.60 1001.42 1001.26 1001.15 1001.09 1001.09 1001.14 1001.24 1001.37 1001.53 1001.70 1001.88 1002.06 1002.24 1002.43 1002.65 1002.88
1014.00 1013.30 1012.63 1011.99 1011.39 1010.80 1010.21 1009.60 1008.95 1008.25 1007.50 1006.72 1005.93 1005.15 1004.40 1003.72 1003.13 1002.64 1002.23 1001.91 1001.66 1001.45 1001.26 1001.09 1000.91 1000.74 1000.58 1000.43 1000.33 1000.27 1000.27 1000.34 1000.47 1000.64 1000.85 1001.07 1001.30 1001.51 1001.71 1001.89 1002.07 1002.24 1002.43
Thickness
5637 5635 5633 5631 5629 5628 5626 5625 5625 5625 5623 5622 5621 5620 5620 5620 5620 5620 5620 5618 5617 5616 5616 5616 5617 5617 5617 5617 5616 5615 5614 5613 5611 5610 5609 5608 5607 5606 5605 5605 5605 5605 5605
5633 5630 5628 5626 5624 5623 5621 5620 5620 5619 5618 5617 5617 5616 5615 5615 5615 5615 5615 5614 5613 5612 5611 5611 5611 5611 5611 5611 5611 5610 5609 5607 5606 5604 5603 5602 5600 5599 5598 5597 5596 5596 5596
5629 5626 5624 5623 5620 5618 5616 5615 5614 5612 5611 5611 5611 5610 5610 5610 5610 5610 5609 5609 5609 5608 5606 5605 5604 5604 5603 5604 5604 5603 5602 5601 5600 5598 5597 5595 5593 5592 5591 5589 5589 5588 5587
5624 5622 5620 5618 5615 5613 5610 5608 5607 5606 5606 5605 5605 5606 5605 5604 5603 5604 5603 5603 5602 5602 5601 5600 5598 5597 5597 5596 5596 5596 5595 5594 5593 5592 5590 5588 5587 5585 5584 5583 5581 5580 5579
5619 5617 5615 5613 5610 5607 5603 5601 5601 5600 5600 5600 5600 5599 5599 5598 5598 5598 5598 5598 5596 5595 5594 5594 5592 5591 5591 5590 5589 5588 5588 5587 5586 5585 5583 5582 5580 5578 5577 5576 5574 5573 5572
5615 5611 5609 5607 5604 5601 5598 5596 5595 5593 5592 5590 5591 5593 5594 5594 5594 5594 5594 5592 5592 5590 5589 5587 5586 5587 5585 5584 5583 5582 5581 5580 5579 5578 5577 5575 5574 5572 5571 5569 5568 5566 5565
5610 5606 5604 5602 5599 5596 5594 5592 5590 5587 5585 5582 5581 5586 5593 5595 5595 5593 5589 5587 5587 5585 5583 5581 5579 5578 5579 5577 5576 5575 5574 5573 5572 5571 5570 5569 5567 5566 5564 5562 5561 5559 5558
5605 5601 5598 5596 5594 5591 5588 5585 5582 5580 5577 5573 5571 5575 5586 5595 5597 5590 5584 5581 5579 5577 5575 5573 5571 5570 5569 5568 5568 5566 5565 5565 5565 5564 5563 5562 5560 5559 5557 5556 5554 5552 5550
5599 5596 5593 5591 5588 5585 5583 5580 5576 5572 5570 5568 5562 5559 5563 5578 5583 5585 5579 5574 5570 5568 5566 5564 5562 5560 5558 5557 5557 5556 5554 5554 5554 5555 5554 5554 5553 5552 5550 5549 5547 5545 5543
5593 5590 5587 5584 5582 5580 5577 5574 5569 5565 5561 5559 5556 5551 5547 5548 5548 5563 5570 5565 5561 5559 5556 5554 5551 5549 5546 5546 5546 5546 5543 5541 5541 5542 5542 5543 5543 5543 5542 5541 5539 5537 5535
5587 5583 5580 5578 5575 5572 5570 5566 5562 5557 5553 5549 5546 5543 5539 5534 5530 5527 5544 5550 5551 5550 5547 5543 5540 5537 5535 5533 5533 5533 5530 5529 5528 5528 5529 5530 5531 5532 5532 5532 5531 5529 5527
5581 5577 5573 5570 5567 5564 5561 5557 5553 5549 5544 5540 5535 5530 5527 5524 5524 5520 5525 5531 5534 5536 5533 5531 5528 5524 5521 5518 5519 5518 5515 5514 5514 5514 5515 5516 5517 5519 5520 5521 5521 5520 5518
5574 5570 5565 5562 5559 5555 5551 5546 5542 5539 5534 5529 5524 5520 5515 5511 5507 5503 5503 5509 5513 5518 5515 5515 5512 5509 5505 5501 5501 5498 5497 5496 5497 5498 5499 5500 5502 5503 5505 5507 5508 5508 5508
5563 5559 5555 5551 5548 5544 5539 5535 5531 5526 5521 5516 5512 5506 5500 5496 5490 5485 5480 5478 5483 5495 5498 5500 5494 5490 5486 5482 5480 5475 5476 5477 5478 5480 5483 5484 5486 5487 5489 5490 5492 5494 5494
5551 5548 5544 5541 5537 5532 5527 5522 5519 5514 5509 5503 5497 5491 5485 5479 5472 5466 5459 5453 5447 5456 5477 5484 5475 5469 5463 5461 5458 5452 5453 5456 5457 5460 5463 5466 5469 5471 5473 5474 5476 5477 5479
5539 5536 5532 5528 5524 5519 5514 5508 5504 5498 5492 5486 5479 5473 5466 5460 5453 5446 5438 5432 5425 5420 5434 5461 5450 5441 5435 5434 5433 5429 5430 5431 5434 5439 5442 5446 5450 5453 5455 5458 5460 5461 5462
5526 5523 5518 5514 5509 5504 5498 5493 5487 5481 5475 5468 5460 5453 5447 5436 5430 5424 5417 5412 5406 5398 5400 5429 5428 5418 5410 5410 5409 5407 5407 5408 5414 5419 5421 5425 5430 5434 5437 5440 5443 5445 5446
5513 5508 5503 5499 5494 5487 5480 5474 5469 5462 5455 5448 5440 5432 5425 5415 5409 5402 5396 5393 5389 5383 5380 5394 5409 5398 5392 5390 5389 5388 5388 5389 5393 5399 5402 5405 5410 5415 5419 5423 5426 5428 5430
5499 5494 5489 5483 5477 5470 5461 5453 5447 5441 5434 5426 5418 5410 5403 5394 5390 5385 5380 5378 5375 5370 5367 5370 5384 5381 5376 5373 5371 5372 5372 5373 5376 5381 5384 5388 5392 5396 5401 5406 5409 5412 5415
5485 5480 5474 5467 5460 5452 5442 5433 5425 5418 5411 5404 5396 5389 5384 5379 5375 5371 5368 5366 5362 5359 5357 5357 5364 5365 5363 5361 5357 5358 5359 5361 5364 5366 5370 5374 5378 5381 5386 5391 5395 5397 5399
5470 5464 5457 5451 5443 5435 5424 5413 5405 5399 5393 5389 5384 5378 5373 5370 5366 5362 5359 5357 5352 5350 5349 5349 5352 5353 5354 5350 5348 5348 5348 5350 5354 5355 5358 5361 5364 5369 5372 5376 5380 5382 5384
5456 5449 5441 5434 5427 5418 5408 5398 5389 5385 5382 5378 5375 5371 5367 5364 5361 5358 5356 5354 5351 5346 5345 5344 5345 5346 5348 5345 5343 5339 5339 5339 5343 5347 5347 5350 5351 5355 5359 5363 5366 5368 5370
5443 5435 5427 5419 5412 5404 5392 5383 5375 5369 5369 5367 5365 5363 5361 5359 5356 5353 5350 5348 5346 5344 5342 5339 5339 5340 5340 5339 5336 5334 5332 5333 5336 5337 5335 5339 5341 5343 5346 5349 5352 5354 5356
5429 5421 5413 5404 5396 5389 5378 5370 5363 5359 5359 5358 5356 5355 5353 5352 5350 5346 5344 5342 5341 5339 5336 5334 5333 5333 5332 5331 5329 5328 5327 5326 5327 5327 5326 5328 5332 5334 5336 5338 5339 5341 5343
5414 5406 5397 5388 5381 5375 5366 5358 5352 5351 5351 5351 5350 5348 5347 5346 5345 5343 5341 5339 5339 5338 5336 5334 5333 5332 5331 5330 5327 5324 5322 5321 5324 5324 5321 5319 5324 5325 5327 5329 5330 5331 5333
5398 5390 5383 5374 5367 5362 5356 5349 5343 5342 5343 5344 5345 5343 5341 5340 5340 5339 5337 5336 5336 5336 5333 5332 5330 5329 5327 5326 5325 5321 5319 5318 5320 5321 5319 5313 5314 5314 5317 5322 5323 5323 5324